Abilene, TX

11:55 PM CDT on August 19, 2017 (GMT -0500)
Abilene Regional

Weather History for KABI - September, 2011

Change the Weather History Date:

Tuesday, September 13, 2011

  Actual Average Record
Temperature  
Mean Temperature 88 °F 76 °F  
Max Temperature 101 °F 88 °F 101 °F (1893)
Min Temperature 74 °F 65 °F 50 °F (1902)
Degree Days  
Heating Degree Days 0 0  
Month to date heating degree days 0 0  
Since 1 July heating degree days 0 0  
Cooling Degree Days 23 12  
Month to date cooling degree days 173 174  
Year to date cooling degree days 3138 2119  
Growing Degree Days 36 (Base 50)    
Moisture  
Dew Point 49 °F    
Average Humidity 29    
Maximum Humidity 41    
Minimum Humidity 17    
Precipitation  
Precipitation 0.00 in 0.08 in 2.28 in (1991)
Month to date precipitation 0.00 1.04  
Year to date precipitation 10.39 18.00  
Sea Level Pressure  
Sea Level Pressure 29.90 in    
Wind  
Wind Speed 9 mph (SSW)    
Max Wind Speed 18 mph    
Max Gust Speed 25 mph    
Visibility 10 miles    
Events      
T = Trace of Precipitation, MM = Missing Value Source: NWS Daily Summary

Daily Weather History Graph

Daily Weather History Graph

Search for Another Location

Airport or City:

Trip Planner

Search our weather history database for the weather conditions in past years. The results will help you decide how hot, cold, wet, or windy it might be!

Date:

Astronomy

Sep. 13, 2011 Rise Set
Actual Time 7:21 AM CDT 7:47 PM CDT
Civil Twilight 6:56 AM CDT 8:12 PM CDT
Nautical Twilight 6:27 AM CDT 8:41 PM CDT
Astronomical Twilight 5:58 AM CDT 9:10 PM CDT
Moon 8:14 PM CDT (9/13) 8:28 AM CDT (9/13)
Length of Visible Light 13h 15m
Length of Day
12h 26m
Full, 98% of the Moon is Illuminated
Sep 13
Full
Sep 20
Last Quarter
Sep 27
New
Oct 3
First Quarter
Oct 11
Full

Hourly Weather History & Observations

Time (CDT) Temp. Heat Index Dew Point Humidity Pressure Visibility Wind Dir Wind Speed Gust Speed Precip Events Conditions
12:52 AM 81.0 °F - 46.0 °F 29% 29.92 in 10.0 mi SSW 8.1 mph - N/A   Clear
1:52 AM 79.0 °F - 45.0 °F 30% 29.91 in 10.0 mi SSW 8.1 mph - N/A   Clear
2:52 AM 80.1 °F - 45.0 °F 29% 29.91 in 10.0 mi SW 8.1 mph - N/A   Clear
3:52 AM 78.1 °F - 45.0 °F 31% 29.91 in 10.0 mi SW 6.9 mph - N/A   Clear
4:52 AM 77.0 °F - 46.0 °F 33% 29.92 in 10.0 mi SSW 3.5 mph - N/A   Clear
5:52 AM 75.9 °F - 46.0 °F 35% 29.93 in 10.0 mi SW 8.1 mph - N/A   Clear
6:52 AM 75.0 °F - 46.9 °F 37% 29.94 in 10.0 mi SSW 5.8 mph - N/A   Clear
7:52 AM 73.9 °F - 48.0 °F 40% 29.96 in 10.0 mi SSW 6.9 mph - N/A   Clear
8:52 AM 79.0 °F - 52.0 °F 39% 29.96 in 10.0 mi SW 6.9 mph - N/A   Clear
9:52 AM 86.0 °F 84.7 °F 55.9 °F 36% 29.96 in 10.0 mi SW 16.1 mph - N/A   Clear
10:52 AM 88.0 °F 86.1 °F 55.0 °F 32% 29.96 in 10.0 mi SW 13.8 mph - N/A   Clear
11:52 AM 91.0 °F 88.9 °F 55.0 °F 29% 29.96 in 10.0 mi SW 15.0 mph - N/A   Mostly Cloudy
12:52 PM 91.0 °F 89.2 °F 55.9 °F 30% 29.94 in 10.0 mi SW 11.5 mph - N/A   Clear
1:52 PM 93.0 °F 91.7 °F 57.0 °F 30% 29.92 in 10.0 mi SW 6.9 mph - N/A   Clear
2:52 PM 99.0 °F - 50.0 °F 19% 29.88 in 10.0 mi WSW 11.5 mph - N/A   Clear
3:52 PM 99.0 °F - 46.9 °F 17% 29.86 in 10.0 mi SSW 9.2 mph - N/A   Clear
4:52 PM 99.0 °F - 46.9 °F 17% 29.84 in 10.0 mi WSW 8.1 mph 18.4 mph N/A   Clear
5:52 PM 98.1 °F - 48.9 °F 19% 29.83 in 10.0 mi WSW 5.8 mph - N/A   Clear
6:52 PM 97.0 °F - 50.0 °F 20% 29.82 in 10.0 mi SSW 4.6 mph - N/A   Clear
7:52 PM 91.9 °F - 48.9 °F 23% 29.82 in 10.0 mi SSE 5.8 mph - N/A   Clear
8:52 PM 88.0 °F - 48.9 °F 26% 29.83 in 10.0 mi SSE 6.9 mph - N/A   Clear
9:52 PM 84.9 °F - 48.9 °F 29% 29.84 in 10.0 mi South 5.8 mph - N/A   Clear
10:52 PM 82.9 °F - 50.0 °F 32% 29.84 in 10.0 mi SE 8.1 mph - N/A   Clear
11:52 PM 86.0 °F - 48.9 °F 28% 29.83 in 10.0 mi South 10.4 mph - N/A   Clear